Location: ???????
(52.3000°N, 54.4667°E)
Time: 22:55:36
(UTC+00:00)

STARLINK-1077 - Pass Details

Date: 24 January 2020
Orbit: 348 x 351 km, 53.0° (Epoch: 18 February)

Event Time Altitude Azimuth Distance (km) Brightness Sun altitude
Rises 14:08:16 0° 263° (W) 2,159 8.6 -11.3°
Reaches altitude 10° 14:10:17 10° 265° (W) 1,317 7.0 -11.6°
Maximum altitude 14:13:13 80° 354° (N) 362 2.6 -12.0°
Enters shadow 14:14:51 24° 78° (ENE) 792 3.8 -12.3°
